This is the latest recevied weather packets stored in our database for station/object WC4PEM-13. If no packets are shown the sender has not sent any weather packets the latest 10 day(s).
| Time | Temp. | Humidity | Pressure | Rain* | Wind** | Luminosity | Snow |
|---|---|---|---|---|---|---|---|
| 1777585660 | 30.56° C | 45% | 1009.6 hPa | 0 mm | - | - | - |
| 1777585360 | 31.11° C | 42% | 1009.7 hPa | 0 mm | - | - | - |
| 1777585060 | 31.11° C | 44% | 1009.8 hPa | 0 mm | - | - | - |
| 1777584760 | 31.67° C | 43% | 1009.5 hPa | 0 mm | - | - | - |
| 1777584460 | 32.22° C | 43% | 1009.8 hPa | 0 mm | - | - | - |
| 1777584160 | 32.78° C | 42% | 1009.7 hPa | 0 mm | - | - | - |
| 1777583860 | 32.78° C | 44% | 1009.6 hPa | 0 mm | - | - | - |
| 1777583560 | 32.78° C | 46% | 1009.5 hPa | 0 mm | - | - | - |
| 1777583260 | 32.78° C | 45% | 1009.4 hPa | 0 mm | - | - | - |
| 1777582960 | 32.22° C | 46% | 1009.4 hPa | 0 mm | - | - | - |
| 1777582660 | 32.22° C | 45% | 1009.4 hPa | 0 mm | - | - | - |
| 1777582361 | 32.22° C | 47% | 1009.5 hPa | 0 mm | - | - | - |
| 1777582060 | 31.67° C | 48% | 1009.5 hPa | 0 mm | - | - | - |
| 1777581760 | 31.67° C | 47% | 1009.7 hPa | 0 mm | - | - | - |
| 1777581460 | 31.67° C | 47% | 1009.6 hPa | 0 mm | - | - | - |
| 1777581160 | 32.22° C | 48% | 1009.7 hPa | 0 mm | - | - | - |
| 1777580860 | 31.67° C | 48% | 1009.7 hPa | 0 mm | - | - | - |
| 1777580560 | 31.67° C | 50% | 1009.6 hPa | 0 mm | - | - | - |
| 1777580260 | 32.22° C | 51% | 1009.5 hPa | 0 mm | - | - | - |
| 1777579960 | 32.78° C | 50% | 1009.8 hPa | 0 mm | - | - | - |
| 1777579661 | 32.78° C | 49% | 1009.6 hPa | 0 mm | - | - | - |
| 1777579360 | 32.22° C | 49% | 1009.7 hPa | 0 mm | - | - | - |
| 1777579061 | 32.22° C | 49% | 1009.8 hPa | 0 mm | - | - | - |
| 1777578760 | 32.22° C | 49% | 1010 hPa | 0 mm | - | - | - |
| 1777578461 | 32.78° C | 46% | 1009.9 hPa | 0 mm | - | - | - |
* Rain latest hour (hover to see other rain measurements)
** Current wind speed in m/s (hover to see current wind gust speed)